Flag for Uruguay Weather past 2 weeks in Canelones, Uruguay

Now
64 °F

Passing clouds.


Feels Like: 64 °F
Forecast: 57 / 81 °F
Wind: 9 mph from South

Location: Carrasco

Current Time: Feb 27, 2015 at 11:03:32 PM

Latest Report: Feb 27, 2015 at 10:00 PM


Visibility: N/A

Pressure: 30.04 "Hg

Humidity: 64%

Dew point: 52 °F

Location of CanelonesLocation

Historic Weather in Canelones — Graph

°F

Canelones temperature yesterday

Maximum temperature yesterday: 79 °F (at 11:00 AM)
Minimum temperature yesterday: 72 °F (at 6:00 AM)
Average temperature yesterday: 75 °F

Past Weeks' High & Low Weather Summary

 TemperatureHumidityPressure
High90 °F (Feb 24, 2:00 PM)100% (Feb 19, 9:00 AM)30.18 "Hg (Feb 19, 9:00 AM)
Low61 °F (Feb 14, 4:00 AM)37% (Feb 17, 2:00 PM)29.62 "Hg (Feb 18, 8:00 PM)
Average72 °F72%29.98 "Hg
* Reported Feb 12 9:00 PM — Feb 27 9:00 PM, Canelones, Weather by CustomWeather, © 2015

Note: Actual official high and low records may vary slightly from our data, if they occured in-between our weather recording intervals... More about our weather records

Advertising

Canelones weather history for previous 24 hours

 ConditionsComfort  
Time TempWeatherWind HumidityBarometerVisibility
9:00 PM
Fri, Feb 27
66 °FPassing clouds.15 mph60%30.04 "HgN/A
8:00 PM66 °FScattered clouds.10 mph60%30.04 "HgN/A
7:00 PM68 °FScattered clouds.12 mph60%30.01 "HgN/A
6:00 PM70 °FScattered clouds.13 mph57%29.98 "HgN/A
5:00 PM70 °FScattered clouds.8 mph57%29.98 "HgN/A
4:00 PM70 °FPartly sunny.18 mph57%29.98 "HgN/A
3:00 PM72 °FPartly sunny.18 mph69%29.95 "HgN/A
2:00 PM73 °FScattered clouds.16 mph65%29.95 "HgN/A
1:00 PM77 °FScattered clouds.17 mph61%29.95 "HgN/A
12:00 PM75 °FScattered clouds.17 mph61%29.92 "HgN/A
11:00 AM75 °FScattered clouds.15 mph65%29.92 "HgN/A
10:00 AM75 °FScattered clouds.15 mph74%29.89 "HgN/A
9:00 AM73 °FScattered clouds.10 mph78%29.89 "HgN/A
8:00 AM70 °FScattered clouds.3 mph88%29.86 "HgN/A
7:00 AM68 °FPassing clouds.No wind83%29.86 "HgN/A
6:00 AM70 °FPassing clouds.3 mph88%29.86 "HgN/A
5:00 AM72 °FPassing clouds.5 mph83%29.86 "HgN/A
4:00 AM72 °FPassing clouds.5 mph83%29.86 "HgN/A
3:00 AM72 °FPassing clouds.6 mph88%29.83 "HgN/A
2:00 AM72 °FPassing clouds.7 mph88%29.83 "HgN/A
1:00 AM72 °FPassing clouds.6 mph88%29.83 "HgN/A
12:00 AM73 °FPassing clouds.7 mph83%29.83 "HgN/A
11:00 PM
Thu, Feb 26
73 °FPassing clouds.7 mph83%29.83 "HgN/A
Weather by CustomWeather, © 2015

See weather overviewHow to use our weather pages